Location: Haram ta Haram Freeway
(35.0583°N, 51.4202°E)
Time: 14:43:30
(UTC+04:30)

CAS-4A - Pass Details

Date: 11 July 2020
Orbit: 528 x 545 km, 43.0° (Epoch: 02 August)

Event Time Altitude Azimuth Distance (km) Brightness Sun altitude
Exits shadow 02:21:23 20° 59° (ENE) 1,284 ? -30.4°
Drops below altitude 10° 02:22:42 10° 61° (ENE) 1,790 ? -30.3°
Sets 02:24:56 0° 62° (ENE) 2,679 ? -30.2°
